2023/02/12 00:00:00,23.2, 2.6
2023/02/12 00:10:00,23.2, 2.8
2023/02/12 00:20:00,23.2, 2.9
2023/02/12 00:30:00,23.2, 3.1
2023/02/12 00:40:00,23.2, 3.6
2023/02/12 00:50:00,23.1, 3.3
2023/02/12 01:00:00,23.1, 3.0
2023/02/12 01:10:00,23.0, 3.7
2023/02/12 01:20:00,23.1, 3.7
2023/02/12 01:30:00,23.1, 3.3
2023/02/12 01:40:00,23.1, 3.2
2023/02/12 01:50:00,23.1, 3.2
2023/02/12 02:00:00,23.1, 3.5
2023/02/12 02:10:00,23.1, 3.5
2023/02/12 02:20:00,23.1, 3.3
2023/02/12 02:30:00,23.1, 3.4
2023/02/12 02:40:00,23.0, 3.6
2023/02/12 02:50:00,23.0, 3.6
2023/02/12 03:00:00,23.0, 3.9
2023/02/12 03:10:00,23.1, 3.8
2023/02/12 03:20:00,23.1, 3.9
2023/02/12 03:30:00,23.1, 3.9
2023/02/12 03:40:00,23.1, 4.1
2023/02/12 03:50:00,22.9, 4.0
2023/02/12 04:00:00,22.9, 3.9
2023/02/12 04:10:00,22.9, 3.7
2023/02/12 04:20:00,22.9, 3.9
2023/02/12 04:30:00,22.9, 4.0
2023/02/12 04:40:00,22.9, 3.8
2023/02/12 04:50:00,22.9, 3.7
2023/02/12 05:00:00,22.8, 3.9
2023/02/12 05:10:00,22.7, 3.8
2023/02/12 05:20:00,22.6, 4.1
2023/02/12 05:30:00,22.6, 3.7
2023/02/12 05:40:00,22.6, 4.1
2023/02/12 05:50:00,22.6, 3.9
2023/02/12 06:00:00,22.6, 3.4
2023/02/12 06:10:00,22.5, 3.0
2023/02/12 06:20:00,22.5, 3.1
2023/02/12 06:30:00,22.5, 4.2
2023/02/12 06:40:00,22.5, 3.1
2023/02/12 06:50:00,22.5, 3.3
2023/02/12 07:00:00,22.4, 3.7
2023/02/12 07:10:00,22.4, 4.5
2023/02/12 07:20:00,22.4, 4.5
2023/02/12 07:30:00,22.4, 4.3
2023/02/12 07:40:00,22.4, 3.8
2023/02/12 07:50:00,22.3, 4.5
2023/02/12 08:00:00,22.3, 4.5
2023/02/12 08:10:00,22.3, 4.6
2023/02/12 08:20:00,22.3, 4.5
2023/02/12 08:30:00,22.3, 4.4
2023/02/12 08:40:00,22.3, 5.1
2023/02/12 08:50:00,22.2, 4.8
2023/02/12 09:00:00,22.3, 5.1
2023/02/12 09:10:00,22.2, 5.4
2023/02/12 09:20:00,22.2, 4.8
2023/02/12 09:30:00,22.2, 4.8
2023/02/12 09:40:00,22.1, 5.4
2023/02/12 09:50:00,22.1, 5.4
2023/02/12 10:00:00,22.1, 5.7
2023/02/12 10:10:00,22.1, 5.7
2023/02/12 10:20:00,22.1, 5.8
2023/02/12 10:30:00,22.1, 5.8
2023/02/12 10:40:00,22.0, 5.9
2023/02/12 10:50:00,21.9, 5.8
2023/02/12 11:00:00,21.9, 6.5
2023/02/12 11:10:00,22.0, 6.3
2023/02/12 11:20:00,22.0, 6.1
2023/02/12 11:30:00,21.9, 6.3
2023/02/12 11:40:00,21.9, 6.5
2023/02/12 11:50:00,21.9, 7.1
2023/02/12 12:00:00,22.0, 7.1
2023/02/12 12:10:00,22.1, 7.2
2023/02/12 12:20:00,22.0, 6.8
2023/02/12 12:30:00,22.0, 6.6
2023/02/12 12:40:00,22.0, 6.5
2023/02/12 12:50:00,21.9, 6.9
2023/02/12 13:00:00,21.9, 7.6
2023/02/12 13:10:00,22.1, 7.5
2023/02/12 13:20:00,22.1, 6.8
2023/02/12 13:30:00,22.0, 6.4
2023/02/12 13:40:00,21.9, 7.5
2023/02/12 13:50:00,21.9, 7.1
2023/02/12 14:00:00,21.4, 6.4
2023/02/12 14:10:00,21.5, 6.8
2023/02/12 14:20:00,21.6, 6.1
2023/02/12 14:30:00,21.6, 5.7
2023/02/12 14:40:00,21.5, 5.5
2023/02/12 14:50:00,21.6, 5.2
2023/02/12 15:00:00,21.6, 4.9
2023/02/12 15:10:00,21.5, 4.8
2023/02/12 15:20:00,21.6, 4.8
2023/02/12 15:30:00,21.5, 4.7
2023/02/12 15:40:00,21.4, 5.2
2023/02/12 15:50:00,21.5, 4.9
2023/02/12 16:00:00,21.4, 4.9
2023/02/12 16:10:00,21.5, 5.1
2023/02/12 16:20:00,21.6, 5.0
2023/02/12 16:30:00,21.4, 4.6
2023/02/12 16:40:00,21.2, 4.7
2023/02/12 16:50:00,21.1, 4.7
2023/02/12 17:00:00,21.2, 4.6
2023/02/12 17:10:00,21.3, 4.7
2023/02/12 17:20:00,21.2, 4.6
2023/02/12 17:30:00,20.8, 4.3
2023/02/12 17:40:00,20.1, 4.3
2023/02/12 17:50:00,19.4, 4.3
2023/02/12 18:00:00,19.1, 4.2
2023/02/12 18:10:00,19.6, 4.3
2023/02/12 18:20:00,19.7, 4.7
2023/02/12 18:30:00,19.5, 4.6
2023/02/12 18:40:00,19.3, 4.5
2023/02/12 18:50:00,19.1, 4.3
2023/02/12 19:00:00,18.9, 4.3
2023/02/12 19:10:00,19.3, 4.1
2023/02/12 19:20:00,19.0, 4.2
2023/02/12 19:30:00,18.8, 4.3
2023/02/12 19:40:00,18.9, 4.1
2023/02/12 19:50:00,18.9, 4.2
2023/02/12 20:00:00,18.9, 3.9
2023/02/12 20:10:00,18.9, 4.0
2023/02/12 20:20:00,18.9, 3.9
2023/02/12 20:30:00,19.0, 4.1
2023/02/12 20:40:00,19.2, 4.3
2023/02/12 20:50:00,19.3, 3.9
2023/02/12 21:00:00,19.2, 3.8
2023/02/12 21:10:00,19.0, 3.9
2023/02/12 21:20:00,19.1, 3.9
2023/02/12 21:30:00,18.9, 3.9
2023/02/12 21:40:00,18.8, 3.9
2023/02/12 21:50:00,18.7, 4.2
2023/02/12 22:00:00,18.6, 4.4
2023/02/12 22:10:00,18.5, 4.1
2023/02/12 22:20:00,18.5, 4.2
2023/02/12 22:30:00,18.4, 4.5
2023/02/12 22:40:00,18.4, 4.2
2023/02/12 22:50:00,18.4, 3.9
2023/02/12 23:00:00,18.5, 3.7
2023/02/12 23:10:00,18.7, 3.9
2023/02/12 23:20:00,18.1, 3.6
2023/02/12 23:30:00,17.9, 3.7
2023/02/12 23:40:00,17.9, 3.9
2023/02/12 23:50:00,17.9, 3.8
